TimeEST,TemperatureF,Dew PointF,Humidity,Sea Level PressureIn,VisibilityMPH,Wind Direction,Wind SpeedMPH,Gust SpeedMPH,PrecipitationIn,Events,Conditions,WindDirDegrees,DateUTC
12:15 AM,32.7,25.7,75,30.39,10.0,SW,3.5,-,N/A,,Clear,230,2012-11-13 05:15:00
12:35 AM,32.0,26.1,79,30.40,10.0,SSW,3.5,-,N/A,,Clear,210,2012-11-13 05:35:00
12:55 AM,31.8,25.9,79,30.40,10.0,Calm,Calm,-,N/A,,Clear,0,2012-11-13 05:55:00
1:15 AM,30.7,25.2,80,30.39,10.0,South,4.6,-,N/A,,Clear,180,2012-11-13 06:15:00
1:35 AM,30.4,25.3,82,30.40,10.0,South,3.5,-,N/A,,Clear,180,2012-11-13 06:35:00
1:55 AM,30.9,25.5,80,30.40,10.0,South,3.5,-,N/A,,Clear,190,2012-11-13 06:55:00
2:15 AM,30.9,25.3,80,30.40,10.0,SSW,3.5,-,N/A,,Clear,200,2012-11-13 07:15:00
2:35 AM,30.6,24.8,79,30.40,10.0,South,4.6,-,N/A,,Clear,170,2012-11-13 07:35:00
2:55 AM,29.1,24.1,81,30.40,10.0,South,5.8,-,N/A,,Clear,170,2012-11-13 07:55:00
3:15 AM,28.8,24.3,83,30.40,10.0,South,6.9,-,N/A,,Clear,180,2012-11-13 08:15:00
3:35 AM,29.3,24.6,83,30.40,10.0,South,4.6,-,N/A,,Clear,190,2012-11-13 08:35:00
3:55 AM,29.8,24.8,81,30.40,10.0,South,4.6,-,N/A,,Clear,190,2012-11-13 08:55:00
4:15 AM,29.8,24.4,80,30.40,10.0,SSW,3.5,-,N/A,,Clear,200,2012-11-13 09:15:00
4:35 AM,29.7,24.6,81,30.40,10.0,WSW,5.8,-,N/A,,Clear,240,2012-11-13 09:35:00
4:55 AM,29.3,24.8,83,30.40,10.0,WSW,5.8,-,N/A,,Clear,250,2012-11-13 09:55:00
5:15 AM,30.0,24.6,80,30.40,10.0,WSW,4.6,-,N/A,,Clear,240,2012-11-13 10:15:00
5:35 AM,28.8,23.2,80,30.41,10.0,South,4.6,-,N/A,,Clear,170,2012-11-13 10:35:00
5:55 AM,28.2,23.5,83,30.41,10.0,SSW,3.5,-,N/A,,Clear,200,2012-11-13 10:55:00
6:15 AM,28.9,23.7,81,30.42,10.0,SSW,5.8,-,N/A,,Clear,200,2012-11-13 11:15:00
6:35 AM,28.4,23.4,81,30.43,10.0,SSW,4.6,-,N/A,,Clear,200,2012-11-13 11:35:00
6:55 AM,28.6,23.5,81,30.44,10.0,SSW,4.6,-,N/A,,Clear,200,2012-11-13 11:55:00
7:15 AM,29.1,23.7,80,30.44,10.0,SW,3.5,-,N/A,,Clear,220,2012-11-13 12:15:00
7:35 AM,27.7,22.6,81,30.45,10.0,South,3.5,-,N/A,,Clear,180,2012-11-13 12:35:00
7:55 AM,27.5,23.0,83,30.46,10.0,SSW,3.5,-,N/A,,Clear,210,2012-11-13 12:55:00
8:15 AM,30.0,24.8,81,30.46,10.0,South,3.5,-,N/A,,Clear,190,2012-11-13 13:15:00
8:35 AM,31.6,25.7,79,30.47,10.0,SSW,3.5,-,N/A,,Clear,210,2012-11-13 13:35:00
8:55 AM,32.5,25.7,76,30.47,10.0,Calm,Calm,-,N/A,,Clear,0,2012-11-13 13:55:00
9:15 AM,33.6,26.4,75,30.47,10.0,SSW,3.5,-,N/A,,Clear,210,2012-11-13 14:15:00
9:35 AM,35.1,27.1,73,30.47,10.0,WSW,3.5,-,N/A,,Clear,240,2012-11-13 14:35:00
9:55 AM,36.1,27.1,70,30.48,10.0,WSW,4.6,-,N/A,,Clear,240,2012-11-13 14:55:00
10:15 AM,37.9,26.4,63,30.48,10.0,Calm,Calm,-,N/A,,Clear,0,2012-11-13 15:15:00
10:35 AM,39.6,25.5,57,30.48,10.0,WSW,8.1,-,N/A,,Clear,240,2012-11-13 15:35:00
10:55 AM,40.1,22.8,50,30.48,10.0,SW,6.9,-,N/A,,Scattered Clouds,230,2012-11-13 15:55:00
11:15 AM,40.5,21.4,47,30.48,10.0,Calm,Calm,-,N/A,,Scattered Clouds,0,2012-11-13 16:15:00
11:35 AM,41.0,19.9,43,30.48,10.0,WNW,9.2,-,N/A,,Mostly Cloudy,290,2012-11-13 16:35:00
11:55 AM,41.0,19.4,42,30.47,10.0,West,6.9,-,N/A,,Mostly Cloudy,260,2012-11-13 16:55:00
12:15 PM,40.5,20.1,44,30.47,10.0,West,9.2,-,N/A,,Mostly Cloudy,270,2012-11-13 17:15:00
12:35 PM,42.3,20.7,42,30.46,10.0,WSW,8.1,-,N/A,,Overcast,250,2012-11-13 17:35:00
12:55 PM,42.3,20.8,43,30.45,10.0,West,6.9,-,N/A,,Overcast,270,2012-11-13 17:55:00
1:15 PM,41.7,19.9,42,30.45,10.0,NW,3.5,-,N/A,,Overcast,310,2012-11-13 18:15:00
1:35 PM,42.4,19.8,40,30.45,10.0,West,5.8,-,N/A,,Overcast,270,2012-11-13 18:35:00
1:55 PM,41.7,18.9,40,30.44,10.0,West,4.6,-,N/A,,Overcast,270,2012-11-13 18:55:00
2:15 PM,41.0,19.6,42,30.45,10.0,West,6.9,-,N/A,,Mostly Cloudy,280,2012-11-13 19:15:00
2:35 PM,41.0,19.9,43,30.45,10.0,West,4.6,-,N/A,,Mostly Cloudy,280,2012-11-13 19:35:00
2:55 PM,41.7,20.3,42,30.45,10.0,WSW,4.6,10.4,N/A,,Overcast,240,2012-11-13 19:55:00
3:15 PM,41.5,19.6,41,30.45,10.0,NW,6.9,-,N/A,,Overcast,310,2012-11-13 20:15:00
3:35 PM,41.2,19.9,43,30.45,10.0,NW,5.8,-,N/A,,Overcast,320,2012-11-13 20:35:00
3:55 PM,40.5,19.8,44,30.46,10.0,WNW,4.6,-,N/A,,Overcast,300,2012-11-13 20:55:00
4:15 PM,40.1,19.9,44,30.46,10.0,WNW,3.5,-,N/A,,Overcast,300,2012-11-13 21:15:00
4:35 PM,40.1,19.0,43,30.46,10.0,West,3.5,-,N/A,,Overcast,280,2012-11-13 21:35:00
4:55 PM,39.9,18.9,43,30.46,10.0,NW,3.5,-,N/A,,Overcast,320,2012-11-13 21:55:00
5:15 PM,39.0,19.6,46,30.46,10.0,Calm,Calm,-,N/A,,Overcast,0,2012-11-13 22:15:00
5:35 PM,38.7,19.8,47,30.46,10.0,Calm,Calm,-,N/A,,Overcast,0,2012-11-13 22:35:00
5:55 PM,38.5,20.1,48,30.46,10.0,North,3.5,-,N/A,,Overcast,350,2012-11-13 22:55:00
6:15 PM,38.5,20.5,48,30.47,10.0,Calm,Calm,-,N/A,,Overcast,0,2012-11-13 23:15:00
6:35 PM,38.5,20.1,48,30.47,10.0,NNE,3.5,-,N/A,,Overcast,30,2012-11-13 23:35:00
6:55 PM,38.8,19.0,45,30.48,10.0,Calm,Calm,-,N/A,,Overcast,0,2012-11-13 23:55:00
7:15 PM,39.0,19.4,45,30.48,10.0,NNW,3.5,-,N/A,,Overcast,340,2012-11-14 00:15:00
7:35 PM,38.3,19.2,46,30.48,10.0,North,3.5,-,N/A,,Overcast,350,2012-11-14 00:35:00
7:55 PM,37.2,19.8,49,30.49,10.0,North,4.6,-,N/A,,Mostly Cloudy,350,2012-11-14 00:55:00
8:15 PM,36.3,19.8,51,30.49,10.0,North,4.6,-,N/A,,Scattered Clouds,350,2012-11-14 01:15:00
8:35 PM,36.0,19.6,51,30.50,10.0,NNW,4.6,-,N/A,,Clear,340,2012-11-14 01:35:00
8:55 PM,35.8,19.4,51,30.50,10.0,North,4.6,-,N/A,,Clear,350,2012-11-14 01:55:00
9:15 PM,34.3,20.7,57,30.51,10.0,Calm,Calm,-,N/A,,Clear,0,2012-11-14 02:15:00
9:35 PM,32.9,22.5,65,30.51,10.0,Calm,Calm,-,N/A,,Clear,0,2012-11-14 02:35:00
9:55 PM,32.2,23.0,69,30.51,10.0,Calm,Calm,-,N/A,,Clear,0,2012-11-14 02:55:00
10:15 PM,32.0,23.2,70,30.52,10.0,Calm,Calm,-,N/A,,Clear,0,2012-11-14 03:15:00
10:35 PM,32.0,22.3,67,30.52,10.0,ENE,4.6,-,N/A,,Clear,60,2012-11-14 03:35:00
10:55 PM,32.2,21.6,65,30.52,10.0,ENE,3.5,-,N/A,,Clear,60,2012-11-14 03:55:00
11:15 PM,32.9,21.4,63,30.51,10.0,NE,4.6,-,N/A,,Clear,40,2012-11-14 04:15:00
11:35 PM,32.9,21.4,63,30.51,10.0,NE,4.6,-,N/A,,Clear,40,2012-11-14 04:35:00
11:55 PM,32.2,21.6,65,30.51,10.0,NE,3.5,-,N/A,,Clear,50,2012-11-14 04:55:00